owner,sensor,date,latitude,longitude,vertical_datum,direction_of_sea_water_velocity,sea_water_speed,upward_sea_water_velocity,qcFlag 
TABS,ioos:station:wmo:42051:1,2016-02-01T00:00:00Z,29.6350,-93.6417,2.0,269.3306356,14.56099241,-99999.0,'11111222,11111222,99999999' 
TABS,ioos:station:wmo:42051:1,2016-02-01T00:30:00Z,29.6350,-93.6417,2.0,266.3495163,16.96441275,-99999.0,'11111222,11111222,99999999' 
TABS,ioos:station:wmo:42051:1,2016-02-01T01:00:00Z,29.6350,-93.6417,2.0,287.2703238,17.8863775,-99999.0,'11111222,11111222,99999999' 
TABS,ioos:station:wmo:42051:1,2016-02-01T01:30:00Z,29.6350,-93.6417,2.0,301.7818911,16.82229473,-99999.0,'11111222,11111222,99999999' 
TABS,ioos:station:wmo:42051:1,2016-02-01T02:00:00Z,29.6350,-93.6417,2.0,307.5626553,16.71522061,-99999.0,'11111222,11111222,99999999' 
TABS,ioos:station:wmo:42051:1,2016-02-01T02:30:00Z,29.6350,-93.6417,2.0,313.2750648,16.44061434,-99999.0,'11111222,11111222,99999999' 
TABS,ioos:station:wmo:42051:1,2016-02-01T03:00:00Z,29.6350,-93.6417,2.0,327.7764712,12.79002737,-99999.0,'11111222,11111222,99999999' 
TABS,ioos:station:wmo:42051:1,2016-02-01T03:30:00Z,29.6350,-93.6417,2.0,305.725764,12.41647696,-99999.0,'11111222,11111222,99999999' 
TABS,ioos:station:wmo:42051:1,2016-02-01T04:00:00Z,29.6350,-93.6417,2.0,280.1594532,12.30288584,-99999.0,'11111222,11111222,99999999' 
TABS,ioos:station:wmo:42051:1,2016-02-01T04:30:00Z,29.6350,-93.6417,2.0,290.892049,9.590516149,-99999.0,'11133222,11111222,99999999' 
TABS,ioos:station:wmo:42051:1,2016-02-01T05:00:00Z,29.6350,-93.6417,2.0,281.389574,7.089605067,-99999.0,'11133222,11111222,99999999' 
TABS,ioos:station:wmo:42051:1,2016-02-01T05:30:00Z,29.6350,-93.6417,2.0,297.8065126,3.922983558,-99999.0,'11133222,11111222,99999999' 
TABS,ioos:station:wmo:42051:1,2016-02-01T06:00:00Z,29.6350,-93.6417,2.0,65.30849958,0.957548954,-99999.0,'11133222,11111222,99999999' 
TABS,ioos:station:wmo:42051:1,2016-02-01T06:30:00Z,29.6350,-93.6417,2.0,29.17078827,3.836587025,-99999.0,'11133222,11111222,99999999' 
TABS,ioos:station:wmo:42051:1,2016-02-01T07:00:00Z,29.6350,-93.6417,2.0,48.14505534,2.577750958,-99999.0,'11133222,11111222,99999999' 
TABS,ioos:station:wmo:42051:1,2016-02-01T07:30:00Z,29.6350,-93.6417,2.0,146.023325,1.10941426,-99999.0,'11133222,11111222,99999999' 
TABS,ioos:station:wmo:42051:1,2016-02-01T08:00:00Z,29.6350,-93.6417,2.0,137.6289705,2.774779271,-99999.0,'11133222,11111222,99999999' 
TABS,ioos:station:wmo:42051:1,2016-02-01T08:30:00Z,29.6350,-93.6417,2.0,108.7487558,5.195700145,-99999.0,'11133222,11111222,99999999' 
TABS,ioos:station:wmo:42051:1,2016-02-01T09:00:00Z,29.6350,-93.6417,2.0,101.2832569,8.432994723,-99999.0,'11133222,11111222,99999999' 
TABS,ioos:station:wmo:42051:1,2016-02-01T09:30:00Z,29.6350,-93.6417,2.0,126.2871639,14.75076269,-99999.0,'11111222,11111222,99999999' 
TABS,ioos:station:wmo:42051:1,2016-02-01T10:00:00Z,29.6350,-93.6417,2.0,146.5481588,16.00046562,-99999.0,'11111222,11111222,99999999' 
TABS,ioos:station:wmo:42051:1,2016-02-01T10:30:00Z,29.6350,-93.6417,2.0,171.1487375,14.94800656,-99999.0,'11111222,11111222,99999999' 
TABS,ioos:station:wmo:42051:1,2016-02-01T11:00:00Z,29.6350,-93.6417,2.0,167.3597012,12.84122268,-99999.0,'11111222,11111222,99999999' 
TABS,ioos:station:wmo:42051:1,2016-02-01T11:30:00Z,29.6350,-93.6417,2.0,163.7137421,10.62640108,-99999.0,'11111222,11111222,99999999' 
TABS,ioos:station:wmo:42051:1,2016-02-01T12:00:00Z,29.6350,-93.6417,2.0,178.5376544,17.63574212,-99999.0,'11111222,11111222,99999999' 
TABS,ioos:station:wmo:42051:1,2016-02-01T12:30:00Z,29.6350,-93.6417,2.0,180.5837566,17.6609173,-99999.0,'11111222,11111222,99999999' 
TABS,ioos:station:wmo:42051:1,2016-02-01T13:00:00Z,29.6350,-93.6417,2.0,184.5444181,17.16396516,-99999.0,'11111222,11111222,99999999' 
TABS,ioos:station:wmo:42051:1,2016-02-01T13:30:00Z,29.6350,-93.6417,2.0,193.969788,18.88868709,-99999.0,'11111222,11111222,99999999' 
TABS,ioos:station:wmo:42051:1,2016-02-01T14:00:00Z,29.6350,-93.6417,2.0,202.3768065,20.33095177,-99999.0,'11111222,11111222,99999999' 
TABS,ioos:station:wmo:42051:1,2016-02-01T14:30:00Z,29.6350,-93.6417,2.0,211.3571047,25.21260201,-99999.0,'11111222,11111222,99999999' 
TABS,ioos:station:wmo:42051:1,2016-02-01T15:00:00Z,29.6350,-93.6417,2.0,221.3454296,25.29514183,-99999.0,'11111222,11111222,99999999' 
TABS,ioos:station:wmo:42051:1,2016-02-01T15:30:00Z,29.6350,-93.6417,2.0,222.7737656,28.03672591,-99999.0,'11111222,11111222,99999999' 
TABS,ioos:station:wmo:42051:1,2016-02-01T16:00:00Z,29.6350,-93.6417,2.0,229.3914885,27.05556689,-99999.0,'11111222,11111222,99999999' 
TABS,ioos:station:wmo:42051:1,2016-02-01T16:30:00Z,29.6350,-93.6417,2.0,231.2021778,27.94581364,-99999.0,'11111222,11111222,99999999' 
TABS,ioos:station:wmo:42051:1,2016-02-01T17:00:00Z,29.6350,-93.6417,2.0,228.7018101,30.33454302,-99999.0,'11111222,11111222,99999999' 
TABS,ioos:station:wmo:42051:1,2016-02-01T17:30:00Z,29.6350,-93.6417,2.0,235.9865504,28.53145808,-99999.0,'11111222,11111222,99999999' 
TABS,ioos:station:wmo:42051:1,2016-02-01T18:00:00Z,29.6350,-93.6417,2.0,236.1117434,29.71824019,-99999.0,'11111222,11111222,99999999' 
TABS,ioos:station:wmo:42051:1,2016-02-01T18:30:00Z,29.6350,-93.6417,2.0,239.2925215,29.10017182,-99999.0,'11111222,11111222,99999999' 
TABS,ioos:station:wmo:42051:1,2016-02-01T19:00:00Z,29.6350,-93.6417,2.0,243.2556006,27.1996636,-99999.0,'11111222,11111222,99999999' 
TABS,ioos:station:wmo:42051:1,2016-02-01T19:30:00Z,29.6350,-93.6417,2.0,254.6135989,26.87312784,-99999.0,'11111222,11111222,99999999' 
TABS,ioos:station:wmo:42051:1,2016-02-01T20:00:00Z,29.6350,-93.6417,2.0,263.6641358,26.73326392,-99999.0,'11111222,11111222,99999999' 
TABS,ioos:station:wmo:42051:1,2016-02-01T20:30:00Z,29.6350,-93.6417,2.0,265.0248451,24.7933963,-99999.0,'11111222,11111222,99999999' 
TABS,ioos:station:wmo:42051:1,2016-02-01T21:00:00Z,29.6350,-93.6417,2.0,269.7963238,25.37015964,-99999.0,'11111222,11111222,99999999' 
TABS,ioos:station:wmo:42051:1,2016-02-01T21:30:00Z,29.6350,-93.6417,2.0,276.8236863,26.85017132,-99999.0,'11111222,11111222,99999999' 
TABS,ioos:station:wmo:42051:1,2016-02-01T22:00:00Z,29.6350,-93.6417,2.0,284.1882195,29.33478652,-99999.0,'11111222,11111222,99999999' 
TABS,ioos:station:wmo:42051:1,2016-02-01T22:30:00Z,29.6350,-93.6417,2.0,282.5167672,29.9928058,-99999.0,'11111222,11111222,99999999' 
TABS,ioos:station:wmo:42051:1,2016-02-01T23:00:00Z,29.6350,-93.6417,2.0,294.2828528,30.54208899,-99999.0,'11111222,11111222,99999999' 
TABS,ioos:station:wmo:42051:1,2016-02-01T23:30:00Z,29.6350,-93.6417,2.0,298.7272533,31.41675508,-99999.0,'11111222,11111222,99999999' 
TABS,ioos:station:wmo:42051:1,2016-02-02T00:00:00Z,29.6350,-93.6417,2.0,296.2313521,31.44859456,-99999.0,'11111222,11111222,99999999' 
TABS,ioos:station:wmo:42051:1,2016-02-02T00:30:00Z,29.6350,-93.6417,2.0,293.7518278,31.97854437,-99999.0,'11111222,11111222,99999999' 
TABS,ioos:station:wmo:42051:1,2016-02-02T01:00:00Z,29.6350,-93.6417,2.0,297.4207417,32.3550367,-99999.0,'11111222,11111222,99999999' 
TABS,ioos:station:wmo:42051:1,2016-02-02T01:30:00Z,29.6350,-93.6417,2.0,296.774783,28.14781164,-99999.0,'11111222,11111222,99999999' 
TABS,ioos:station:wmo:42051:1,2016-02-02T02:00:00Z,29.6350,-93.6417,2.0,301.1780741,28.47239365,-99999.0,'11111222,11111222,99999999' 
TABS,ioos:station:wmo:42051:1,2016-02-02T02:30:00Z,29.6350,-93.6417,2.0,299.4349038,28.85462355,-99999.0,'11111222,11111222,99999999' 
TABS,ioos:station:wmo:42051:1,2016-02-02T03:00:00Z,29.6350,-93.6417,2.0,302.4555314,32.94574935,-99999.0,'11111222,11111222,99999999' 
TABS,ioos:station:wmo:42051:1,2016-02-02T03:30:00Z,29.6350,-93.6417,2.0,301.9175861,24.11604031,-99999.0,'11111222,11111222,99999999' 
TABS,ioos:station:wmo:42051:1,2016-02-02T04:00:00Z,29.6350,-93.6417,2.0,300.1858504,24.99994,-99999.0,'11111222,11111222,99999999' 
TABS,ioos:station:wmo:42051:1,2016-02-02T04:30:00Z,29.6350,-93.6417,2.0,297.7799767,17.72258446,-99999.0,'11111222,11111222,99999999' 
TABS,ioos:station:wmo:42051:1,2016-02-02T05:00:00Z,29.6350,-93.6417,2.0,294.9387903,17.64521465,-99999.0,'11111222,11111222,99999999' 
TABS,ioos:station:wmo:42051:1,2016-02-02T05:30:00Z,29.6350,-93.6417,2.0,296.1397444,15.0491528,-99999.0,'11111222,11111222,99999999' 
TABS,ioos:station:wmo:42051:1,2016-02-02T06:00:00Z,29.6350,-93.6417,2.0,274.1933723,15.59173178,-99999.0,'11111222,11111222,99999999' 
TABS,ioos:station:wmo:42051:1,2016-02-02T06:30:00Z,29.6350,-93.6417,2.0,297.1276307,14.58433749,-99999.0,'11111222,11111222,99999999' 
TABS,ioos:station:wmo:42051:1,2016-02-02T07:00:00Z,29.6350,-93.6417,2.0,274.3346776,8.865353913,-99999.0,'11133222,11111222,99999999' 
TABS,ioos:station:wmo:42051:1,2016-02-02T07:30:00Z,29.6350,-93.6417,2.0,283.5588169,6.398312277,-99999.0,'11133222,11111222,99999999' 
TABS,ioos:station:wmo:42051:1,2016-02-02T08:00:00Z,29.6350,-93.6417,2.0,305.8806596,5.442811773,-99999.0,'11133222,11111222,99999999' 
TABS,ioos:station:wmo:42051:1,2016-02-02T08:30:00Z,29.6350,-93.6417,2.0,259.1401012,4.989348655,-99999.0,'11133222,11111222,99999999' 
TABS,ioos:station:wmo:42051:1,2016-02-02T09:00:00Z,29.6350,-93.6417,2.0,262.7222346,10.26267022,-99999.0,'11111222,11111222,99999999' 
TABS,ioos:station:wmo:42051:1,2016-02-02T09:30:00Z,29.6350,-93.6417,2.0,255.791979,8.10800222,-99999.0,'11133222,11111222,99999999' 
TABS,ioos:station:wmo:42051:1,2016-02-02T10:00:00Z,29.6350,-93.6417,2.0,254.6687719,7.29976027,-99999.0,'11133222,11111222,99999999' 
TABS,ioos:station:wmo:42051:1,2016-02-02T10:30:00Z,29.6350,-93.6417,2.0,263.2710827,1.792344833,-99999.0,'11133222,11111222,99999999' 
TABS,ioos:station:wmo:42051:1,2016-02-02T11:00:00Z,29.6350,-93.6417,2.0,187.2556864,7.600868371,-99999.0,'11133222,11111222,99999999' 
TABS,ioos:station:wmo:42051:1,2016-02-02T11:30:00Z,29.6350,-93.6417,2.0,197.1024785,17.95394107,-99999.0,'11111222,11111222,99999999' 
TABS,ioos:station:wmo:42051:1,2016-02-02T12:00:00Z,29.6350,-93.6417,2.0,204.8865991,19.69926395,-99999.0,'11111222,11111222,99999999' 
TABS,ioos:station:wmo:42051:1,2016-02-02T12:30:00Z,29.6350,-93.6417,2.0,220.6177767,22.21151053,-99999.0,'11111222,11111222,99999999' 
TABS,ioos:station:wmo:42051:1,2016-02-02T13:00:00Z,29.6350,-93.6417,2.0,213.3302011,23.42267705,-99999.0,'11111222,11111222,99999999' 
TABS,ioos:station:wmo:42051:1,2016-02-02T13:30:00Z,29.6350,-93.6417,2.0,219.5800057,26.05314568,-99999.0,'11111222,11111222,99999999' 
TABS,ioos:station:wmo:42051:1,2016-02-02T14:00:00Z,29.6350,-93.6417,2.0,226.7106236,26.76178058,-99999.0,'11111222,11111222,99999999' 
TABS,ioos:station:wmo:42051:1,2016-02-02T14:30:00Z,29.6350,-93.6417,2.0,219.8136591,34.96815265,-99999.0,'11111222,11111222,99999999' 
TABS,ioos:station:wmo:42051:1,2016-02-02T15:00:00Z,29.6350,-93.6417,2.0,230.0635923,33.72628204,-99999.0,'11111222,11111222,99999999' 
TABS,ioos:station:wmo:42051:1,2016-02-02T15:30:00Z,29.6350,-93.6417,2.0,239.8104742,29.4318467,-99999.0,'11111222,11111222,99999999' 
TABS,ioos:station:wmo:42051:1,2016-02-02T16:00:00Z,29.6350,-93.6417,2.0,236.9438336,24.80493902,-99999.0,'11111222,11111222,99999999' 
TABS,ioos:station:wmo:42051:1,2016-02-02T16:30:00Z,29.6350,-93.6417,2.0,224.23839,20.75541616,-99999.0,'11111222,11111222,99999999' 
TABS,ioos:station:wmo:42051:1,2016-02-02T17:00:00Z,29.6350,-93.6417,2.0,233.9763579,20.71026074,-99999.0,'11111222,11111222,99999999' 
TABS,ioos:station:wmo:42051:1,2016-02-02T17:30:00Z,29.6350,-93.6417,2.0,243.6631459,21.30095303,-99999.0,'11111222,11111222,99999999' 
TABS,ioos:station:wmo:42051:1,2016-02-02T18:00:00Z,29.6350,-93.6417,2.0,243.0411057,29.95507303,-99999.0,'11111222,11111222,99999999' 
TABS,ioos:station:wmo:42051:1,2016-02-02T18:30:00Z,29.6350,-93.6417,2.0,245.3760719,30.88888635,-99999.0,'11111222,11111222,99999999' 
TABS,ioos:station:wmo:42051:1,2016-02-02T19:00:00Z,29.6350,-93.6417,2.0,258.5915642,29.77831762,-99999.0,'11111222,11111222,99999999' 
TABS,ioos:station:wmo:42051:1,2016-02-02T19:30:00Z,29.6350,-93.6417,2.0,266.6263388,29.74152989,-99999.0,'11111222,11111222,99999999' 
TABS,ioos:station:wmo:42051:1,2016-02-02T20:00:00Z,29.6350,-93.6417,2.0,246.4258099,32.48065578,-99999.0,'11111222,11111222,99999999' 
TABS,ioos:station:wmo:42051:1,2016-02-02T20:30:00Z,29.6350,-93.6417,2.0,243.1092811,31.50670564,-99999.0,'11111222,11111222,99999999' 
TABS,ioos:station:wmo:42051:1,2016-02-02T21:00:00Z,29.6350,-93.6417,2.0,234.8920487,33.29774917,-99999.0,'11111222,11111222,99999999' 
TABS,ioos:station:wmo:42051:1,2016-02-02T21:30:00Z,29.6350,-93.6417,2.0,237.9288567,34.35243368,-99999.0,'11111222,11111222,99999999' 
TABS,ioos:station:wmo:42051:1,2016-02-02T22:00:00Z,29.6350,-93.6417,2.0,230.7154025,31.38185782,-99999.0,'11111222,11111222,99999999' 
TABS,ioos:station:wmo:42051:1,2016-02-02T22:30:00Z,29.6350,-93.6417,2.0,233.2696266,31.9540952,-99999.0,'11111222,11111222,99999999' 
TABS,ioos:station:wmo:42051:1,2016-02-02T23:00:00Z,29.6350,-93.6417,2.0,232.5564349,28.98145096,-99999.0,'11111222,11111222,99999999' 
TABS,ioos:station:wmo:42051:1,2016-02-02T23:30:00Z,29.6350,-93.6417,2.0,227.144247,26.8322828,-99999.0,'11111222,11111222,99999999' 
TABS,ioos:station:wmo:42051:1,2016-02-03T00:00:00Z,29.6350,-93.6417,2.0,232.8298842,26.36636114,-99999.0,'11111222,11111222,99999999' 
TABS,ioos:station:wmo:42051:1,2016-02-03T00:30:00Z,29.6350,-93.6417,2.0,236.1431586,29.59892735,-99999.0,'11111222,11111222,99999999' 
TABS,ioos:station:wmo:42051:1,2016-02-03T01:00:00Z,29.6350,-93.6417,2.0,235.3021506,30.76010728,-99999.0,'11111222,11111222,99999999' 
TABS,ioos:station:wmo:42051:1,2016-02-03T01:30:00Z,29.6350,-93.6417,2.0,245.645952,32.56798735,-99999.0,'11111222,11111222,99999999' 
TABS,ioos:station:wmo:42051:1,2016-02-03T02:00:00Z,29.6350,-93.6417,2.0,249.6045361,32.08110503,-99999.0,'11111222,11111222,99999999' 
TABS,ioos:station:wmo:42051:1,2016-02-03T02:30:00Z,29.6350,-93.6417,2.0,237.8213958,41.10372489,-99999.0,'11111222,11111222,99999999' 
TABS,ioos:station:wmo:42051:1,2016-02-03T03:00:00Z,29.6350,-93.6417,2.0,246.4932326,40.81719368,-99999.0,'11111222,11111222,99999999' 
TABS,ioos:station:wmo:42051:1,2016-02-03T03:30:00Z,29.6350,-93.6417,2.0,249.4363964,46.66313534,-99999.0,'11111222,11111222,99999999' 
TABS,ioos:station:wmo:42051:1,2016-02-03T04:00:00Z,29.6350,-93.6417,2.0,246.2412573,33.06191162,-99999.0,'11111222,11111222,99999999' 
TABS,ioos:station:wmo:42051:1,2016-02-03T04:30:00Z,29.6350,-93.6417,2.0,239.9990636,32.23942928,-99999.0,'11111222,11111222,99999999' 
TABS,ioos:station:wmo:42051:1,2016-02-03T05:00:00Z,29.6350,-93.6417,2.0,240.8045725,30.50526676,-99999.0,'11111222,11111222,99999999' 
TABS,ioos:station:wmo:42051:1,2016-02-03T05:30:00Z,29.6350,-93.6417,2.0,236.6393458,32.76945682,-99999.0,'11111222,11111222,99999999' 
TABS,ioos:station:wmo:42051:1,2016-02-03T06:00:00Z,29.6350,-93.6417,2.0,234.0265353,30.2857095,-99999.0,'11111222,11111222,99999999' 
TABS,ioos:station:wmo:42051:1,2016-02-03T06:30:00Z,29.6350,-93.6417,2.0,237.5984429,33.90908138,-99999.0,'11111222,11111222,99999999' 
TABS,ioos:station:wmo:42051:1,2016-02-03T07:00:00Z,29.6350,-93.6417,2.0,240.0656658,30.44077036,-99999.0,'11111222,11111222,99999999' 
TABS,ioos:station:wmo:42051:1,2016-02-03T07:30:00Z,29.6350,-93.6417,2.0,239.376334,32.03821624,-99999.0,'11111222,11111222,99999999' 
TABS,ioos:station:wmo:42051:1,2016-02-03T08:00:00Z,29.6350,-93.6417,2.0,229.3267928,32.98864047,-99999.0,'11111222,11111222,99999999' 
TABS,ioos:station:wmo:42051:1,2016-02-03T08:30:00Z,29.6350,-93.6417,2.0,224.6318655,28.63841476,-99999.0,'11111222,11111222,99999999' 
TABS,ioos:station:wmo:42051:1,2016-02-03T09:00:00Z,29.6350,-93.6417,2.0,218.170456,26.16474345,-99999.0,'11111222,11111222,99999999' 
TABS,ioos:station:wmo:42051:1,2016-02-03T09:30:00Z,29.6350,-93.6417,2.0,223.328555,28.1265284,-99999.0,'11111222,11111222,99999999' 
TABS,ioos:station:wmo:42051:1,2016-02-03T10:00:00Z,29.6350,-93.6417,2.0,229.5837384,25.48078492,-99999.0,'11111222,11111222,99999999' 
TABS,ioos:station:wmo:42051:1,2016-02-03T10:30:00Z,29.6350,-93.6417,2.0,222.2268483,24.8485412,-99999.0,'11111222,11111222,99999999' 
TABS,ioos:station:wmo:42051:1,2016-02-03T11:00:00Z,29.6350,-93.6417,2.0,222.5445876,37.80127114,-99999.0,'11111222,11111222,99999999' 
TABS,ioos:station:wmo:42051:1,2016-02-03T11:30:00Z,29.6350,-93.6417,2.0,225.0793722,45.75692407,-99999.0,'11111222,11111222,99999999' 
TABS,ioos:station:wmo:42051:1,2016-02-03T12:00:00Z,29.6350,-93.6417,2.0,227.6824683,51.36396402,-99999.0,'11111222,11111222,99999999' 
TABS,ioos:station:wmo:42051:1,2016-02-03T12:30:00Z,29.6350,-93.6417,2.0,224.9996843,56.24327338,-99999.0,'11111222,11111222,99999999' 
TABS,ioos:station:wmo:42051:1,2016-02-03T13:00:00Z,29.6350,-93.6417,2.0,235.9744863,61.17338392,-99999.0,'11111222,11111222,99999999' 
TABS,ioos:station:wmo:42051:1,2016-02-03T13:30:00Z,29.6350,-93.6417,2.0,240.6855536,57.90477182,-99999.0,'11111222,11111222,99999999' 
TABS,ioos:station:wmo:42051:1,2016-02-03T14:00:00Z,29.6350,-93.6417,2.0,246.3607517,51.7743421,-99999.0,'11111222,11111222,99999999' 
TABS,ioos:station:wmo:42051:1,2016-02-03T14:30:00Z,29.6350,-93.6417,2.0,240.0873573,60.27989798,-99999.0,'11111222,11111222,99999999' 
TABS,ioos:station:wmo:42051:1,2016-02-03T15:00:00Z,29.6350,-93.6417,2.0,245.5461947,54.98199796,-99999.0,'11111222,11111222,99999999' 
TABS,ioos:station:wmo:42051:1,2016-02-03T15:30:00Z,29.6350,-93.6417,2.0,244.3547097,57.92610206,-99999.0,'11111222,11111222,99999999' 
TABS,ioos:station:wmo:42051:1,2016-02-03T16:00:00Z,29.6350,-93.6417,2.0,249.1229685,60.86586071,-99999.0,'11111222,11111222,99999999' 
TABS,ioos:station:wmo:42051:1,2016-02-03T16:30:00Z,29.6350,-93.6417,2.0,248.9007462,67.69846749,-99999.0,'11111222,11111222,99999999' 
TABS,ioos:station:wmo:42051:1,2016-02-03T17:00:00Z,29.6350,-93.6417,2.0,254.5608304,54.99445154,-99999.0,'11111222,11111222,99999999' 
TABS,ioos:station:wmo:42051:1,2016-02-03T17:30:00Z,29.6350,-93.6417,2.0,261.2592657,52.31755537,-99999.0,'11111222,11111222,99999999' 
TABS,ioos:station:wmo:42051:1,2016-02-03T18:00:00Z,29.6350,-93.6417,2.0,266.6313454,37.78527226,-99999.0,'11111222,11111222,99999999' 
TABS,ioos:station:wmo:42051:1,2016-02-03T18:30:00Z,29.6350,-93.6417,2.0,255.3214619,45.02956473,-99999.0,'11111222,11111222,99999999' 
TABS,ioos:station:wmo:42051:1,2016-02-03T19:00:00Z,29.6350,-93.6417,2.0,256.4291764,49.82088919,-99999.0,'11111222,11111222,99999999' 
TABS,ioos:station:wmo:42051:1,2016-02-03T19:30:00Z,29.6350,-93.6417,2.0,258.6408711,52.95725918,-99999.0,'11111222,11111222,99999999' 
TABS,ioos:station:wmo:42051:1,2016-02-03T20:00:00Z,29.6350,-93.6417,2.0,254.8451029,51.94647245,-99999.0,'11111222,11111222,99999999' 
TABS,ioos:station:wmo:42051:1,2016-02-03T20:30:00Z,29.6350,-93.6417,2.0,261.5384099,47.23410738,-99999.0,'11111222,11111222,99999999' 
TABS,ioos:station:wmo:42051:1,2016-02-03T21:00:00Z,29.6350,-93.6417,2.0,252.052967,53.0617838,-99999.0,'11111222,11111222,99999999' 
TABS,ioos:station:wmo:42051:1,2016-02-03T21:30:00Z,29.6350,-93.6417,2.0,261.2508115,49.76907674,-99999.0,'11111222,11111222,99999999' 
TABS,ioos:station:wmo:42051:1,2016-02-03T22:00:00Z,29.6350,-93.6417,2.0,254.3002802,53.73457453,-99999.0,'11111222,11111222,99999999' 
TABS,ioos:station:wmo:42051:1,2016-02-03T22:30:00Z,29.6350,-93.6417,2.0,259.0398203,53.9133323,-99999.0,'11111222,11111222,99999999' 
TABS,ioos:station:wmo:42051:1,2016-02-03T23:00:00Z,29.6350,-93.6417,2.0,256.0593231,52.13553107,-99999.0,'11111222,11111222,99999999' 
TABS,ioos:station:wmo:42051:1,2016-02-03T23:30:00Z,29.6350,-93.6417,2.0,256.1698702,47.10557504,-99999.0,'11111222,11111222,99999999' 
TABS,ioos:station:wmo:42051:1,2016-02-04T00:00:00Z,29.6350,-93.6417,2.0,252.1829601,52.45575374,-99999.0,'11111222,11111222,99999999' 
TABS,ioos:station:wmo:42051:1,2016-02-04T00:30:00Z,29.6350,-93.6417,2.0,263.0455069,49.06091724,-99999.0,'11111222,11111222,99999999' 
TABS,ioos:station:wmo:42051:1,2016-02-04T01:00:00Z,29.6350,-93.6417,2.0,260.6101405,42.6615717,-99999.0,'11111222,11111222,99999999' 
TABS,ioos:station:wmo:42051:1,2016-02-04T01:30:00Z,29.6350,-93.6417,2.0,258.8567153,43.72427815,-99999.0,'11111222,11111222,99999999' 
TABS,ioos:station:wmo:42051:1,2016-02-04T02:00:00Z,29.6350,-93.6417,2.0,256.8518193,44.5785565,-99999.0,'11111222,11111222,99999999' 
TABS,ioos:station:wmo:42051:1,2016-02-04T02:30:00Z,29.6350,-93.6417,2.0,259.611712,38.87721312,-99999.0,'11111222,11111222,99999999' 
TABS,ioos:station:wmo:42051:1,2016-02-04T03:00:00Z,29.6350,-93.6417,2.0,253.2363362,45.42015081,-99999.0,'11111222,11111222,99999999' 
TABS,ioos:station:wmo:42051:1,2016-02-04T03:30:00Z,29.6350,-93.6417,2.0,249.4875459,44.23454419,-99999.0,'11111222,11111222,99999999' 
TABS,ioos:station:wmo:42051:1,2016-02-04T04:00:00Z,29.6350,-93.6417,2.0,246.543479,41.4774951,-99999.0,'11111222,11111222,99999999' 
TABS,ioos:station:wmo:42051:1,2016-02-04T04:30:00Z,29.6350,-93.6417,2.0,243.9980023,44.11528193,-99999.0,'11111222,11111222,99999999' 
TABS,ioos:station:wmo:42051:1,2016-02-04T05:00:00Z,29.6350,-93.6417,2.0,245.6248399,43.88135139,-99999.0,'11111222,11111222,99999999' 
TABS,ioos:station:wmo:42051:1,2016-02-04T05:30:00Z,29.6350,-93.6417,2.0,241.1985322,41.49276684,-99999.0,'11111222,11111222,99999999' 
TABS,ioos:station:wmo:42051:1,2016-02-04T06:00:00Z,29.6350,-93.6417,2.0,239.7115952,43.04570826,-99999.0,'11111222,11111222,99999999' 
TABS,ioos:station:wmo:42051:1,2016-02-04T06:30:00Z,29.6350,-93.6417,2.0,239.1800219,48.4056288,-99999.0,'11111222,11111222,99999999' 
TABS,ioos:station:wmo:42051:1,2016-02-04T07:00:00Z,29.6350,-93.6417,2.0,234.284725,45.84131324,-99999.0,'11111222,11111222,99999999' 
TABS,ioos:station:wmo:42051:1,2016-02-04T07:30:00Z,29.6350,-93.6417,2.0,228.5017602,45.60870531,-99999.0,'11111222,11111222,99999999' 
TABS,ioos:station:wmo:42051:1,2016-02-04T08:00:00Z,29.6350,-93.6417,2.0,232.2803783,41.95861056,-99999.0,'11111222,11111222,99999999' 
TABS,ioos:station:wmo:42051:1,2016-02-04T08:30:00Z,29.6350,-93.6417,2.0,229.0041724,37.36281708,-99999.0,'11111222,11111222,99999999' 
TABS,ioos:station:wmo:42051:1,2016-02-04T09:00:00Z,29.6350,-93.6417,2.0,228.554605,40.14191077,-99999.0,'11111222,11111222,99999999' 
TABS,ioos:station:wmo:42051:1,2016-02-04T09:30:00Z,29.6350,-93.6417,2.0,225.0845039,38.21209233,-99999.0,'11111222,11111222,99999999' 
TABS,ioos:station:wmo:42051:1,2016-02-04T10:00:00Z,29.6350,-93.6417,2.0,222.4527118,33.09700893,-99999.0,'11111222,11111222,99999999' 
TABS,ioos:station:wmo:42051:1,2016-02-04T10:30:00Z,29.6350,-93.6417,2.0,224.7068242,34.58504446,-99999.0,'11111222,11111222,99999999' 
TABS,ioos:station:wmo:42051:1,2016-02-04T11:00:00Z,29.6350,-93.6417,2.0,229.5176089,32.31620027,-99999.0,'11111222,11111222,99999999' 
TABS,ioos:station:wmo:42051:1,2016-02-04T11:30:00Z,29.6350,-93.6417,2.0,230.7972702,29.19018499,-99999.0,'11111222,11111222,99999999' 
TABS,ioos:station:wmo:42051:1,2016-02-04T12:00:00Z,29.6350,-93.6417,2.0,235.265477,27.85334809,-99999.0,'11111222,11111222,99999999' 
TABS,ioos:station:wmo:42051:1,2016-02-04T12:30:00Z,29.6350,-93.6417,2.0,240.1495203,31.06083064,-99999.0,'11111222,11111222,99999999' 
TABS,ioos:station:wmo:42051:1,2016-02-04T13:00:00Z,29.6350,-93.6417,2.0,244.7323277,26.26264648,-99999.0,'11111222,11111222,99999999' 
TABS,ioos:station:wmo:42051:1,2016-02-04T13:30:00Z,29.6350,-93.6417,2.0,242.0195762,26.62179934,-99999.0,'11111222,11111222,99999999' 
TABS,ioos:station:wmo:42051:1,2016-02-04T14:00:00Z,29.6350,-93.6417,2.0,245.1762997,23.24795905,-99999.0,'11111222,11111222,99999999' 
TABS,ioos:station:wmo:42051:1,2016-02-04T14:30:00Z,29.6350,-93.6417,2.0,254.9176814,17.40968121,-99999.0,'11111222,11111222,99999999' 
TABS,ioos:station:wmo:42051:1,2016-02-04T15:00:00Z,29.6350,-93.6417,2.0,261.1410993,13.57189007,-99999.0,'11111222,11111222,99999999' 
TABS,ioos:station:wmo:42051:1,2016-02-04T15:30:00Z,29.6350,-93.6417,2.0,253.0617429,20.69784771,-99999.0,'11111222,11111222,99999999' 
TABS,ioos:station:wmo:42051:1,2016-02-04T16:00:00Z,29.6350,-93.6417,2.0,258.0801084,20.09323518,-99999.0,'11111222,11111222,99999999' 